EST,Max TemperatureF,Mean TemperatureF,Min TemperatureF,Max Dew PointF,MeanDew PointF,Min DewpointF,Max Humidity, Mean Humidity, Min Humidity, Max Sea Level PressureIn, Mean Sea Level PressureIn, Min Sea Level PressureIn, Max VisibilityMiles, Mean VisibilityMiles, Min VisibilityMiles, Max Wind SpeedMPH, Mean Wind SpeedMPH, Max Gust SpeedMPH,PrecipitationIn, CloudCover, Events, WindDirDegrees
2012-12-1,60,44,28,46,37,28,100,87,55,30.43,30.38,30.35,10,7,0,4,0,,0.00,0,Fog,223
2012-12-2,62,46,30,50,42,30,100,85,63,30.42,30.33,30.25,10,7,0,9,2,,0.00,1,Fog-Rain,156
2012-12-3,68,56,44,55,52,45,100,89,60,30.29,30.26,30.23,10,8,0,5,2,,0.00,5,Fog-Rain,207
2012-12-4,73,57,41,55,49,41,100,79,43,30.32,30.24,30.17,10,7,0,12,2,17,0.00,1,Fog,172
2012-12-5,59,47,35,59,50,36,100,96,88,30.27,30.17,30.10,10,7,0,10,3,16,0.15,7,Fog-Rain,185
2012-12-6,46,39,32,37,32,28,100,83,57,30.38,30.31,30.27,10,10,10,9,3,17,0.00,0,,13
2012-12-7,53,44,35,50,42,34,100,87,72,30.26,30.14,30.01,10,10,7,6,1,,0.00,8,Rain,5
2012-12-8,62,53,44,54,50,45,100,95,72,30.07,30.00,29.97,10,5,0,8,2,,0.00,5,Fog,204
2012-12-9,64,53,42,59,53,43,100,97,77,30.16,30.09,30.01,10,4,0,8,1,,0.05,6,Fog-Rain,140
2012-12-10,69,63,57,64,59,55,100,87,68,30.01,29.80,29.68,10,9,3,14,5,22,0.00,5,,157
2012-12-11,64,55,46,57,45,36,94,71,58,30.20,29.96,29.71,10,10,10,16,8,22,0.00,7,,355
2012-12-12,44,42,41,36,32,30,71,65,57,30.38,30.32,30.19,10,10,10,13,7,18,0.00,8,Rain,353
2012-12-13,51,40,28,36,33,28,100,79,54,30.40,30.36,30.32,10,10,5,13,8,20,0.04,4,Rain,337
2012-12-14,53,38,23,36,29,23,100,83,35,30.38,30.32,30.26,10,10,7,5,1,,0.00,0,,236
2012-12-15,51,38,26,43,33,27,100,85,47,30.31,30.24,30.15,10,10,1,8,0,,0.00,1,Rain,95
2012-12-16,55,48,42,55,50,43,100,99,93,30.13,30.01,29.90,10,5,2,8,2,,0.20,8,Rain-Thunderstorm,143
2012-12-17,59,56,53,55,54,54,100,95,82,29.90,29.79,29.65,10,8,3,9,3,20,0.21,6,Rain,166
2012-12-18,60,50,39,54,45,34,100,77,42,29.89,29.72,29.64,10,9,0,15,5,23,0.00,3,Fog,232
2012-12-19,60,45,30,41,35,30,100,76,36,30.19,30.01,29.89,10,10,2,9,2,,0.00,0,,243
2012-12-20,59,46,32,59,40,32,100,89,58,30.22,29.99,29.46,10,8,2,23,4,36,0.16,3,Rain,90
2012-12-21,60,46,33,61,31,21,100,61,42,29.75,29.57,29.40,10,10,5,23,15,37,0.03,5,Rain,230
2012-12-22,46,40,33,23,21,18,65,51,37,30.07,29.93,29.74,10,10,10,18,9,25,0.00,0,,245
2012-12-23,55,38,21,28,23,18,100,54,26,30.15,30.07,30.00,10,10,10,10,4,,0.00,0,,194
2012-12-24,50,44,37,43,37,28,87,74,53,30.07,29.99,29.92,10,10,10,9,1,,0.00,7,Rain,85
2012-12-25,53,44,35,45,41,36,100,82,62,30.20,30.08,29.93,10,9,0,8,3,,0.00,6,Fog,357
2012-12-26,51,44,37,52,42,36,100,96,76,30.19,29.75,29.43,10,7,2,13,7,18,1.02,8,Rain-Thunderstorm,353
2012-12-27,46,39,32,37,31,27,100,74,53,30.09,29.84,29.56,10,10,10,14,9,21,0.00,1,Rain,244
2012-12-28,42,34,26,32,29,25,100,83,57,30.20,30.12,30.06,10,10,10,6,2,,0.00,1,,201
2012-12-29,46,40,33,41,35,30,100,87,61,30.04,29.80,29.62,10,8,1,14,4,22,0.30,5,Rain-Snow,246
2012-12-30,42,35,28,30,23,19,80,58,39,30.39,30.25,29.89,10,10,10,20,7,30,0.00,0,,261
2012-12-31,46,34,21,32,26,19,100,71,43,30.38,30.27,30.10,10,10,10,8,1,,0.00,1,,172